Location: LDNL
(36.4545°S, 141.6685°E)
Time: 12:49:15
(UTC+10:00)

Vanguard 3 - Pass Details

Date: 03 February 2022
Orbit: 508 x 3258 km, 33.3° (Epoch: 25 May)

Event Time Altitude Azimuth Distance (km) Brightness Sun altitude
Rises 01:50:13 0° 272° (W) 3,788 - -36.8°
Reaches altitude 10° 01:52:22 10° 274° (W) 3,085 - -36.8°
Maximum altitude 02:00:17 75° 357° (N) 1,768 - -36.8°
Exits shadow 02:03:08 56° 62° (ENE) 2,197 9.0 -36.7°
Drops below altitude 10° 02:14:49 10° 79° (ENE) 5,366 11.3 -36.4°
Sets 02:19:50 0° 79° (E) 6,717 11.8 -36.3°
